This demonstration page uses our WeatherBlox Daily Observations layout. Learn more.

Left ArrowRight Arrow

44.8408, -93.29828

Hourly Observations for March 20, 2022

Temp ( °F °C ) Dew Point ( °F °C ) Humidity (%) Winds ( mph kmh ) Pressure ( in mb ) Visibility ( mi km ) Precip ( " mm )
12:53 am 00:53 Clear 39 3.9 31 -0.6 73 73 WNW 3 6 30.00 1016 10 16 0.00 0.00
1:53 am 01:53 Clear 36 2.2 31 -0.6 82 82 WNW 3 6 30.01 1016 10 16 0.00 0.00
2:53 am 02:53 Clear 34 1.1 29 -1.7 82 82 NW 3 6 30.01 1016 9 14 0.00 0.00
3:53 am 03:53 Clear 34 1.1 28 -2.2 79 79 Calm 30.02 1017 7 11 0.00 0.00
4:53 am 04:53 Clear with Mist and Fog 33 0.6 29 -1.7 85 85 SW 3 6 30.03 1017 5 8 0.00 0.00
5:53 am 05:53 Clear with Mist and Fog 32 0 29 -1.7 88 88 Calm 30.04 1017 6 10 0.00 0.00
6:53 am 06:53 Clear with Mist and Fog 31 -0.6 28 -2.2 89 89 WSW 3 6 30.06 1018 6 10 0.00 0.00
7:53 am 07:53 Sunny with Mist and Fog 32 0 31 -0.6 96 96 Calm 30.08 1019 6 10 0.00 0.00
8:53 am 08:53 Sunny with Mist and Fog 35 1.7 32 0 89 89 Calm 30.09 1019 6 10 0.00 0.00
9:53 am 09:53 Sunny 39 3.9 34 1.1 82 82 S 3 6 30.10 1019 9 14 0.00 0.00
10:53 am 10:53 Mostly Sunny 45 7.2 34 1.1 66 66 SSW 3 6 30.10 1019 10 16 0.00 0.00
11:53 am 11:53 Mostly Sunny 51 10.6 33 0.6 50 50 S 5 7 30.10 1019 10 16 0.00 0.00
12:53 pm 12:53 Mostly Sunny 53 11.7 31 -0.6 43 43 Calm 30.09 1019 10 16 0.00 0.00
1:53 pm 13:53 Partly Cloudy 58 14.4 28 -2.2 32 32 E 6 9 30.06 1018 10 16 0.00 0.00
2:53 pm 14:53 Mostly Cloudy 58 14.4 28 -2.2 32 32 SSE 8 13 30.04 1017 10 16 0.00 0.00
3:53 pm 15:53 Mostly Cloudy 58 14.4 30 -1.1 35 35 ESE 10 17 30.04 1017 10 16 0.00 0.00
4:53 pm 16:53 Mostly Cloudy 59 15 28 -2.2 31 31 ESE 9 15 30.02 1017 10 16 0.00 0.00
5:53 pm 17:53 Mostly Cloudy 57 13.9 23 -5 27 27 SE 9 15 30.01 1016 10 16 0.00 0.00
6:53 pm 18:53 Mostly Cloudy 55 12.8 26 -3.3 33 33 SE 9 15 30.01 1016 10 16 0.00 0.00
7:53 pm 19:53 Mostly Cloudy 54 12.2 27 -2.8 35 35 ESE 14 22 29.99 1016 10 16 0.00 0.00
8:53 pm 20:53 Mostly Cloudy 52 11.1 26 -3.3 37 37 ESE 13 20 29.99 1016 10 16 0.00 0.00
9:53 pm 21:53 Mostly Cloudy 52 11.1 25 -3.9 35 35 ESE 13 20 30.00 1016 10 16 0.00 0.00
10:53 pm 22:53 Mostly Cloudy 50 10 25 -3.9 38 38 ESE 13 20 29.99 1016 10 16 0.00 0.00
11:53 pm 23:53 Mostly Cloudy 50 10 26 -3.3 39 39 ESE 14 22 29.97 1015 10 16 0.00 0.00

Powered by AerisWeather